Danville, IN

2:03 PM EDT on April 26, 2017 (GMT -0400)
Vermilion County

Weather History for KDNV - October, 2012

Change the Weather History Date:

Saturday, October 6, 2012

  Actual Average (KLAF) Record (KLAF)
Temperature  
Mean Temperature 42 °F -  
Max Temperature 51 °F 67 °F 90 °F (2007)
Min Temperature 33 °F 45 °F 29 °F (1988)
Degree Days  
Heating Degree Days 24    
Moisture  
Dew Point 32 °F    
Average Humidity 73    
Maximum Humidity 92    
Minimum Humidity 49    
Precipitation  
Precipitation 0.03 in - - ()
Sea Level Pressure  
Sea Level Pressure 30.13 in    
Wind  
Wind Speed 8 mph (WNW)    
Max Wind Speed 14 mph    
Max Gust Speed 20 mph    
Visibility 10 miles    
Events      
Averages and records for this station are not official NWS values.
T = Trace of Precipitation, MM = Missing Value Source: NWS Daily Summary

Daily Weather History Graph

Daily Weather History Graph

Search for Another Location

Airport or City:

Trip Planner

Search our weather history database for the weather conditions in past years. The results will help you decide how hot, cold, wet, or windy it might be!

Date:

Astronomy

Oct. 06, 2012 Rise Set
Actual Time 6:52 AM CDT 6:23 PM CDT
Civil Twilight 6:25 AM CDT 6:50 PM CDT
Nautical Twilight 5:53 AM CDT 7:22 PM CDT
Astronomical Twilight 5:22 AM CDT 7:53 PM CDT
Moon 10:38 PM CDT (10/6) 12:46 PM CDT (10/6)
Length of Visible Light 12h 25m
Length of Day
11h 31m
Waning Gibbous, 65% of the Moon is Illuminated
Oct 6
Waning Gibbous
Oct 8
Last Quarter
Oct 15
New
Oct 21
First Quarter
Oct 29
Full

Hourly Weather History & Observations

Time (CDT) Temp. Windchill Dew Point Humidity Pressure Visibility Wind Dir Wind Speed Gust Speed Precip Events Conditions
12:15 AM 38.5 °F 32.7 °F 35.4 °F 89% 30.10 in 10.0 mi West 8.1 mph - N/A   Clear
12:35 AM 38.1 °F 33.7 °F 34.7 °F 87% 30.10 in 10.0 mi West 5.8 mph - N/A   Clear
12:55 AM 37.4 °F 32.1 °F 34.3 °F 89% 30.09 in 10.0 mi West 6.9 mph - N/A   Clear
1:15 AM 36.9 °F 32.2 °F 34.0 °F 89% 30.09 in 10.0 mi West 5.8 mph - N/A   Clear
1:35 AM 37.4 °F 32.1 °F 33.8 °F 87% 30.09 in 10.0 mi West 6.9 mph - N/A   Clear
1:55 AM 36.5 °F 31.0 °F 33.3 °F 88% 30.09 in 10.0 mi West 6.9 mph - N/A   Clear
2:15 AM 35.6 °F 29.9 °F 32.0 °F 87% 30.09 in 10.0 mi West 6.9 mph - N/A   Clear
2:35 AM 35.2 °F 28.8 °F 32.4 °F 89% 30.09 in 10.0 mi West 8.1 mph - N/A   Clear
2:55 AM 35.1 °F 29.3 °F 32.4 °F 90% 30.09 in 10.0 mi West 6.9 mph - N/A   Clear
3:15 AM 35.4 °F 29.7 °F 32.4 °F 89% 30.08 in 10.0 mi West 6.9 mph - N/A   Clear
3:35 AM 35.1 °F 27.9 °F 32.0 °F 89% 30.09 in 10.0 mi West 9.2 mph - N/A   Clear
3:55 AM 34.9 °F 28.3 °F 32.0 °F 89% 30.10 in 10.0 mi West 8.1 mph - N/A   Clear
4:15 AM 34.2 °F 27.5 °F 32.0 °F 92% 30.10 in 10.0 mi West 8.1 mph - N/A   Clear
4:35 AM 34.0 °F 28.8 °F 31.8 °F 92% 30.10 in 10.0 mi West 5.8 mph - N/A   Clear
4:55 AM 34.7 °F 27.5 °F 31.6 °F 89% 30.11 in 10.0 mi West 9.2 mph - N/A   Clear
5:15 AM 34.2 °F 26.8 °F 31.6 °F 90% 30.11 in 10.0 mi West 9.2 mph - N/A   Clear
5:35 AM 34.0 °F 27.2 °F 31.5 °F 90% 30.12 in 10.0 mi West 8.1 mph - N/A   Clear
5:55 AM 33.8 °F 27.7 °F 31.1 °F 90% 30.12 in 10.0 mi West 6.9 mph - N/A   Clear
6:15 AM 33.3 °F 26.4 °F 30.9 °F 91% 30.13 in 10.0 mi West 8.1 mph - N/A   Clear
6:35 AM 33.4 °F 27.3 °F 31.1 °F 91% 30.14 in 10.0 mi West 6.9 mph - N/A   Clear
6:55 AM 33.4 °F 27.3 °F 30.9 °F 90% 30.14 in 10.0 mi West 6.9 mph - N/A   Clear
7:15 AM 33.8 °F 27.0 °F 30.7 °F 89% 30.14 in 10.0 mi West 8.1 mph - N/A   Clear
7:35 AM 34.7 °F 27.5 °F 31.3 °F 87% 30.15 in 10.0 mi West 9.2 mph - N/A   Clear
7:55 AM 36.1 °F 29.3 °F 31.6 °F 84% 30.15 in 10.0 mi West 9.2 mph - N/A   Clear
8:15 AM 36.7 °F 30.5 °F 32.0 °F 83% 30.15 in 10.0 mi WNW 8.1 mph - N/A   Clear
8:35 AM 37.6 °F 31.0 °F 32.0 °F 80% 30.15 in 10.0 mi West 9.2 mph - N/A   Clear
8:55 AM 39.2 °F 33.6 °F 32.2 °F 76% 30.16 in 10.0 mi WNW 8.1 mph - N/A   Clear
9:15 AM 40.3 °F 34.4 °F 32.9 °F 75% 30.15 in 10.0 mi WNW 9.2 mph - N/A   Clear
9:35 AM 41.0 °F 34.7 °F 32.7 °F 72% 30.15 in 10.0 mi WNW 10.4 mph - N/A   Clear
9:55 AM 42.1 °F 36.6 °F 32.4 °F 68% 30.16 in 10.0 mi WNW 9.2 mph 17.3 mph N/A   Clear
10:15 AM 43.3 °F 38.1 °F 32.5 °F 66% 30.16 in 10.0 mi WNW 9.2 mph 16.1 mph N/A   Clear
10:35 AM 44.1 °F 38.1 °F 32.9 °F 65% 30.16 in 10.0 mi NW 11.5 mph - N/A   Clear
10:55 AM 44.8 °F 39.0 °F 31.6 °F 60% 30.16 in 10.0 mi WNW 11.5 mph - N/A   Clear
11:15 AM 45.7 °F 39.8 °F 32.5 °F 60% 30.15 in 10.0 mi NW 12.7 mph 16.1 mph N/A   Clear
11:35 AM 45.7 °F 40.2 °F 31.3 °F 57% 30.15 in 10.0 mi NW 11.5 mph - N/A   Clear
11:55 AM 45.9 °F 40.8 °F 31.5 °F 57% 30.14 in 10.0 mi West 10.4 mph 16.1 mph N/A   Clear
12:15 PM 47.7 °F - 32.2 °F 55% 30.15 in 10.0 mi WNW 10.4 mph - N/A   Clear
12:35 PM 47.7 °F - 32.0 °F 55% 30.15 in 10.0 mi NW 13.8 mph - N/A   Clear
12:55 PM 48.2 °F - 32.4 °F 54% 30.14 in 10.0 mi NW 10.4 mph 17.3 mph N/A   Clear
1:15 PM 48.7 °F - 33.3 °F 55% 30.13 in 7.0 mi NW 13.8 mph 18.4 mph N/A   Clear
1:35 PM 48.6 °F - 32.5 °F 54% 30.13 in 10.0 mi WNW 11.5 mph 18.4 mph N/A   Clear
1:55 PM 49.5 °F - 32.5 °F 52% 30.13 in 10.0 mi NW 5.8 mph - N/A   Clear
2:15 PM 48.7 °F - 31.8 °F 52% 30.13 in 10.0 mi WNW 8.1 mph 19.6 mph N/A   Clear
2:35 PM 49.1 °F - 32.0 °F 52% 30.12 in 10.0 mi WNW 11.5 mph 16.1 mph N/A   Clear
2:55 PM 50.2 °F - 32.7 °F 51% 30.12 in 10.0 mi WNW 11.5 mph 18.4 mph N/A   Clear
3:15 PM 50.2 °F - 31.8 °F 49% 30.12 in 10.0 mi NW 11.5 mph 17.3 mph N/A   Clear
3:35 PM 50.0 °F - 31.8 °F 50% 30.12 in 10.0 mi NW 9.2 mph 17.3 mph N/A   Clear
3:55 PM 49.3 °F - 31.5 °F 50% 30.12 in 10.0 mi WNW 11.5 mph 16.1 mph N/A   Clear
4:15 PM 48.6 °F - 32.0 °F 53% 30.12 in 10.0 mi WNW 10.4 mph 16.1 mph N/A   Clear
4:35 PM 48.2 °F - 31.6 °F 53% 30.13 in 10.0 mi NW 6.9 mph - N/A   Scattered Clouds
4:55 PM 47.7 °F - 31.1 °F 53% 30.13 in 10.0 mi NW 10.4 mph - N/A   Mostly Cloudy
5:15 PM 47.3 °F - 31.8 °F 55% 30.14 in 10.0 mi NW 10.4 mph - N/A   Mostly Cloudy
5:35 PM 46.4 °F 41.9 °F 31.8 °F 57% 30.15 in 10.0 mi NW 9.2 mph - N/A   Mostly Cloudy
5:55 PM 45.9 °F 41.2 °F 31.5 °F 57% 30.15 in 10.0 mi NW 9.2 mph - N/A   Scattered Clouds
6:15 PM 45.5 °F 41.8 °F 31.6 °F 58% 30.15 in 10.0 mi NW 6.9 mph - N/A   Clear
6:35 PM 44.8 °F 41.6 °F 32.0 °F 61% 30.15 in 10.0 mi NW 5.8 mph - N/A   Clear
6:55 PM 44.2 °F 41.8 °F 32.2 °F 63% 30.15 in 10.0 mi WNW 4.6 mph - N/A   Clear
7:15 PM 43.7 °F 42.1 °F 33.4 °F 67% 30.15 in 10.0 mi WNW 3.5 mph - N/A   Clear
7:35 PM 43.2 °F - 33.6 °F 69% 30.15 in 10.0 mi Calm Calm - N/A   Clear
7:55 PM 42.1 °F 40.2 °F 33.6 °F 72% 30.15 in 10.0 mi West 3.5 mph - N/A   Clear
8:15 PM 41.4 °F 38.4 °F 33.4 °F 73% 30.15 in 10.0 mi West 4.6 mph - N/A   Clear
8:35 PM 40.5 °F 37.3 °F 33.4 °F 76% 30.16 in 10.0 mi WNW 4.6 mph - N/A   Clear
8:55 PM 40.1 °F 36.9 °F 33.1 °F 76% 30.16 in 10.0 mi WNW 4.6 mph - N/A   Clear
9:15 PM 39.4 °F 35.2 °F 32.9 °F 78% 30.16 in 10.0 mi WNW 5.8 mph - N/A   Clear
9:35 PM 38.8 °F 34.6 °F 32.9 °F 79% 30.16 in 10.0 mi WNW 5.8 mph - N/A   Clear
9:55 PM 38.7 °F 34.3 °F 32.9 °F 80% 30.16 in 10.0 mi NW 5.8 mph - N/A   Clear
10:15 PM 38.7 °F 33.6 °F 32.9 °F 80% 30.16 in 10.0 mi NW 6.9 mph - N/A   Clear
10:35 PM 39.4 °F 34.5 °F 32.7 °F 77% 30.16 in 10.0 mi NW 6.9 mph - N/A   Clear
11:15 PM 38.8 °F 34.6 °F 32.9 °F 79% 30.17 in 10.0 mi NW 5.8 mph - N/A   Clear
11:35 PM 37.9 °F 33.5 °F 32.5 °F 81% 30.16 in 10.0 mi NW 5.8 mph - N/A   Clear
11:55 PM 37.6 °F 32.3 °F 32.4 °F 81% 30.16 in 10.0 mi NW 6.9 mph - N/A   Clear